Regional Weather Roundup
Issued by NWS

Home | Current Version | Previous Version | Text Only | Print | Product List | Glossary On
Versions: 1 2 3 4 5 6 7 8 9 10 11 12 13 14 15 16 17 18 19 20 21 22 23 24 25 26 27 28 29 30 31 32 33 34 35 36 37 38 39 40 41 42 43 44 45 46 47 48 49 50
000
ASCA44 KEWX 241520
RWRMX

LATIN AMERICA AND CARIBBEAN REGIONAL WEATHER ROUNDUP
NATIONAL WEATHER SERVICE AUSTIN/SAN ANTONIO TX
900 AM CST MON NOV 24 2014

NOTE: "FAIR" INDICATED FEW OR NO CLOUDS BELOW 12,000 FEET WITH NO
SIGNIFICANT WEATHER AND/OR OBSTRUCTIONS TO VISIBILITY.

BAJA CALIFORNIA

CITY           SKY/WX    TMP DP  RH WIND       PRES   REMARKS
LORETO         MOSUNNY   72  52  49 CALM      30.01R
LA PAZ         MOSUNNY   73  61  64 N18       29.99
MEXICALI       PTCLDY    46  18  31 N6        30.23  WCI  43
S.J. DEL CABO  SUNNY     61  54  77 CALM      29.97
TIJUANA        MOCLDY    61  14  16 E9        30.18R

NORTHWESTERN MEXICO

CITY           SKY/WX    TMP DP  RH WIND       PRES   REMARKS
CULIACAN       SUNNY     66  57  72 CALM      29.93
DURANGO        SUNNY     41  32  70 CALM      30.20R
GUAYMAS        MOSUNNY   61  43  51 CALM      29.97
HERMOSILLO     MOSUNNY   48  37  66 CALM      30.06
CD. JUAREZ     PTSUNNY   43  12  28 N9        30.10  WCI  37
LOS MOCHIS     SUNNY     64  54  68 CALM      29.96
OBREGON        MOSUNNY   59  45  58 CALM      29.96

NORTHEASTERN MEXICO

CITY           SKY/WX    TMP DP  RH WIND       PRES   REMARKS
CHIHUAHUA      MOSUNNY   39  19  45 S3        30.20
MATAMOROS      PTSUNNY   63  61  94 NW18      30.00
MONCLOVA         N/A    N/A N/A N/A MISG        N/A
MONTERREY      PTSUNNY   59  45  58 W12G23    30.07R
NUEVO LAREDO   MOSUNNY   55  41  58 N12       30.11
PIEDRAS NEGRAS SUNNY     55  36  47 SE7       30.15R
REYNOSA        MOSUNNY   57  45  62 N18       30.06
SALTILLO       CLOUDY    52  34  50 CALM      30.17R
TORREON        MOSUNNY   57  32  38 NW16      30.11R
CD. VICTORIA   PTSUNNY   66  52  59 N16       29.97

WESTERN MEXICO

CITY           SKY/WX    TMP DP  RH WIND       PRES   REMARKS
AGUASCALIENTES CLOUDY    46  41  81 S2        30.25
COLIMA         PTSUNNY   68  64  88 CALM      30.03R
DEL BAJIO      PTSUNNY   50  43  76 CALM      30.30S
GUADALAJARA    PTSUNNY   55  50  82 CALM      30.21
MANZANILLO     PTSUNNY   72  61  68 N9        29.89R
MAZATLAN       SUNNY     61  59  94 N9        29.93R
P. VALLARTA    CLOUDY    70  64  83 NE6       29.93R
URUAPAN        CLOUDY    59  57  94 CALM      30.20R
ZACATECAS      CLOUDY    50  27  40 S9        30.25  WCI  46

CENTRAL MEXICO

CITY           SKY/WX    TMP DP  RH WIND       PRES   REMARKS
CUERNAVACA     PTSUNNY   70  55  60 CALM      30.15R
MEXICO CITY    PTSUNNY   61  46  59 VRB3      30.33R
MORELIA        PTSUNNY   55  52  88 W2        30.26
POZA RICA      FOG       66  66 100 CALM      29.92R VSB 1/16
PUEBLA         CLOUDY    55  48  76 NW6       30.33R
QUERETARO      CLOUDY    55  43  62 W2        30.30R
S. LUIS POTOSI PTSUNNY   61  36  39 SE5       30.21R
TAMPICO        CLOUDY    73  70  88 N7        29.90R FOG
TOLUCA         PTSUNNY   45  39  81 CALM      30.39R HAZE

SOUTHERN MEXICO

CITY           SKY/WX    TMP DP  RH WIND       PRES   REMARKS
ACAPULCO       CLOUDY    81  75  83 N5        29.91R
B. DE HUATULCO MOSUNNY   81  68  65 CALM      29.94
OAXACA         PTSUNNY   64  57  77 N3        30.24R
P. ESCONDIDO   MOSUNNY   79  70  73 E6        30.00S
VERACRUZ       FOG       75  73  94 SW7       29.83R VSB 1
ZIHUATANEJO    PTSUNNY   79  73  83 CALM      29.91R

YUCATAN PENINSULA

CITY           SKY/WX    TMP DP  RH WIND       PRES   REMARKS
CAMPECHE       MOSUNNY   79  75  89 E9        29.86R
CANCUN         MOSUNNY   84  75  74 SE13      29.94R HX  92
CHETUMAL       MOSUNNY   82  75  78 E7        29.89R
CD. DEL CARMEN SUNNY     79  72  78 SE18      29.86
COZUMEL        SUNNY     79  75  89 SE9       29.93R
MERIDA         PTSUNNY   79  73  83 SE16      29.90R
MINATITLAN     MOSUNNY   81  64  57 SW12      29.82
TAPACHULA      MOSUNNY   81  77  89 N8        29.92R
TUX. GUTIERREZ PTSUNNY   73  64  73 SE3       30.00R
VILLAHERMOSA   PTSUNNY   77  75  94 CALM      29.88R FOG

CENTRAL AMERICA

CITY           SKY/WX    TMP DP  RH WIND       PRES   REMARKS
BELIZE CITY    MOSUNNY   84  79  84 E8        29.90R HX  96
MANAGUA        MOSUNNY   82  73  74 E5        29.86R

CARIBBEAN

CITY           SKY/WX    TMP DP  RH WIND       PRES   REMARKS
ARUBA          MOSUNNY   88  75  66 E23       29.92S HX  97
KINGSTON       MOSUNNY   88  75  66 SE22      29.94S HX  97
NASSAU         PTSUNNY   82  79  89 SE13      30.07R HX  93
SAN JUAN       MOSUNNY   84  73  70 E17       30.06F HX  91
SANTO DOMINGO  MOSUNNY   84  73  70 E12       30.03S HX  91
ST. KITTS      LGT RAIN  79  75  89 NE20      30.06S
ST. MAARTEN    MOSUNNY   84  73  70 E15G28    30.06S HX  91
ST. THOMAS     MOSUNNY   82  73  74 E17G26    30.06

$$



USA.gov is the U.S. government's official web portal to all federal, state and local government web resources and services.